Location: Loup Canal
(41.4930°N, 97.5670°W)
Time: 11:56:03
(UTC-05:00)

Daily predictions for brighter satellites

Satellite Brightness Start Highest point End
(mag) Time Altitude Azimuth Time Altitude Azimuth Time Altitude Azimuth
Meteor 1-27 Rocket 3.9 21:13:39 10° N 21:19:08 56° ENE 21:24:31 10° SSE
Cosmos 1378 Rocket 4.1 21:15:44 10° N 21:19:49 40° ENE 21:23:54 10° SSE
Cosmos 1733 Rocket 3.5 21:16:39 10° SSW 21:21:02 70° W 21:25:24 10° N
Cosmos 1908 Rocket 3.8 21:17:44 10° S 21:22:00 52° E 21:26:20 10° NNE
SL-27 R/B 3.9 21:19:46 10° NW 21:23:10 38° WSW 21:26:30 10° S
Cosmos 1782 3.2 21:26:18 10° NNW 21:30:20 69° W 21:34:21 10° S
Cosmos 1825 2.3 21:34:55 10° S 21:38:39 57° E 21:42:25 10° NNE
Envisat 3.2 21:35:45 10° SSE 21:40:41 55° ENE 21:45:39 10° N
Cosmos 1833 Rocket 3.9 21:35:53 10° N 21:40:42 28° NE 21:45:06 12° ESE
deb Chang Zheng 4 3.9 21:37:33 10° NNE 21:41:49 46° E 21:46:06 10° S
Cosmos 2341 Rocket 4.1 21:35:54 10° S 21:42:04 60° E 21:48:12 10° NNE
Cosmos 1844 Rocket 3.8 21:38:42 10° SW 21:44:08 48° WNW 21:49:37 10° NNE
ISS -1.8 21:44:12 10° W 21:47:17 39° NNW 21:50:24 10° NE
Cosmos 2278 Rocket 2.3 21:43:20 10° SSW 21:49:00 88° WNW 21:54:44 10° NNE
ERS-1 Rocket 3.0 21:44:31 10° SSE 21:49:34 84° WSW 21:54:38 10° NNW
H-2A R/B 2.1 21:46:48 10° SSE 21:50:59 62° ENE 21:55:07 10° N
Cosmos 1420 Rocket 4.0 21:48:10 10° S 21:53:21 68° ESE 21:58:33 10° NNE
Okean 3 3.4 21:50:14 10° N 21:54:32 77° E 21:58:45 10° SSE
Cosmos 1939 Rocket 2.8 21:51:09 10° SSE 21:55:02 87° ENE 21:59:01 10° NNW
Abrixas 3.0 21:52:29 10° SSW 21:55:19 37° SE 21:58:10 10° ENE
Cosmos 1140 Rocket 3.4 21:50:52 10° NNW 21:56:02 80° ENE 22:00:43 13° SSE
COSMOS 2487 2.9 21:53:00 10° NNW 21:56:35 62° WSW 22:00:03 10° S
APEX 3.5 21:54:48 10° SSW 21:58:44 70° ESE 22:03:55 10° NNE
Timation 2 Rocket 3.9 21:52:59 10° NNW 21:59:01 78° ENE 22:04:05 15° SSE
Cosmos 1238 Rocket 2.8 21:58:13 10° N 22:01:40 78° W 22:05:49 10° S
Cosmos 2154 Rocket 4.2 21:57:38 10° SSW 22:03:50 73° W 22:10:03 10° N
CZ-4B R/B 4.2 22:01:36 10° NE 22:05:52 29° E 22:08:19 19° SE
SPOT 5 3.1 22:02:47 14° SSE 22:07:22 70° ENE 22:12:42 10° N
Cosmos 2082 Rocket 2.4 22:03:21 10° NNW 22:08:58 57° ENE 22:12:49 20° SE
Cosmos 1184 Rocket 3.6 22:08:50 10° SSW 22:12:05 53° WNW 22:15:23 10° N
Cosmos 1812 4.3 22:11:29 10° NNE 22:14:20 19° ENE 22:15:11 18° E
Lacrosse 5 2.8 22:13:26 10° S 22:17:36 26° ESE 22:21:48 10° ENE
H-2A R/B 3.4 22:20:50 19° ESE 22:23:15 26° ENE 22:27:34 10° N
UNK 4.4 22:18:30 10° NNE 22:24:37 63° ESE 22:30:20 10° S
Cosmos 2366 rocket 4.1 22:22:11 15° SSE 22:27:19 58° E 22:33:32 10° NNE
Cosmos 2297 3.8 22:22:05 10° SSW 22:27:47 85° WNW 22:33:33 10° NNE
MetOp-B 4.1 22:25:01 19° SSE 22:28:54 88° ENE 22:34:17 10° NNW
Okean 2 Rocket 3.7 22:26:23 10° SSW 22:30:42 56° W 22:35:04 10° N
NOAA 11 4.4 22:28:28 25° SE 22:31:33 57° ENE 22:36:57 10° N
Meteor 1-14 Rocket 4.1 22:26:46 10° S 22:32:26 83° E 22:38:02 10° N
Cosmos 1242 Rocket 3.6 22:33:02 10° NNW 22:36:32 42° W 22:38:59 18° SSW
SPOT 1/Viking Rocket 3.5 22:35:56 27° SSE 22:38:48 76° ENE 22:44:02 10° N
Intercosmos 25 3.7 22:37:35 13° SSW 22:40:31 50° W 22:43:38 10° N
YAOGAN 6 3.0 22:45:16 33° SSW 22:46:35 57° W 22:50:04 10° NNW
GPS 2-05 Rocket1 4.4 22:44:19 10° WSW 22:46:55 25° SSW 22:46:55 25° SSW
PSLV R/B 4.3 22:48:39 30° SW 22:49:27 36° W 22:52:12 10° NNW
Lacrosse 5 rocket 1.0 22:46:30 10° SSW 22:50:23 62° SE 22:54:08 10° NE
USA 229 DEB 3.8 22:43:25 10° NW 22:50:33 80° WSW 22:54:27 30° SSE
CARTOSAT-1 4.4 22:49:49 31° E 22:50:33 34° ENE 22:54:27 10° N
USA 229 3.8 22:43:31 10° NW 22:50:39 81° WSW 22:54:33 30° SSE
OAO 3 Rocket 3.7 22:48:24 10° WSW 22:53:00 39° S 22:53:20 38° SSE
Meteor 2-19 Rocket 4.4 22:49:34 26° S 22:53:07 68° E 22:59:11 10° NNE
ARGOS 3.1 22:50:37 32° SSE 22:53:14 89° ENE 22:58:38 10° NNW
Cosmos 2369 Rocket 3.6 22:55:51 21° E 22:55:51 21° E 22:59:11 10° NE
SL-08 RB Rocket 3.6 22:53:47 41° SSE 22:55:22 80° ENE 23:00:03 10° N
AVUM R/B 3.4 22:53:35 10° NNW 22:57:05 66° WSW 22:57:23 62° SSW
CZ-4 R/B 3.6 22:52:58 10° NNE 22:57:38 72° ESE 22:59:18 39° S
Cosmos 2218 Rocket 4.3 22:52:53 10° SSW 22:59:16 71° W 23:05:40 10° N
Cosmos 1536 Rocket 3.7 22:58:13 10° NNW 23:02:42 73° W 23:04:12 41° S
Meteor 2-8 Rocket 4.4 22:57:29 10° N 23:03:41 85° W 23:06:48 31° S
Landsat 7 3.7 23:07:13 51° SSE 23:08:22 76° ENE 23:13:09 10° N
Gbstr 26 Del rocket 3.3 23:03:56 10° NW 23:09:02 67° NNE 23:10:03 49° E
IGS 5A 3.9 23:09:05 45° E 23:09:16 45° ENE 23:13:16 10° N
Cosmos 1331 Rocket 3.9 23:07:15 28° SSW 23:10:02 89° ESE 23:15:14 10° NNE
Cosmos 1727 Rocket 4.1 23:05:55 10° N 23:12:04 74° W 23:15:12 31° S
CZ-4C R/B 3.2 23:11:59 71° SE 23:12:18 77° ENE 23:16:29 10° N
DELTA 2 DEB (DPAF) 4.0 23:12:14 60° SSE 23:12:59 81° ENE 23:17:29 10° N
Cosmos 1400 Rocket 4.1 23:19:54 30° ENE 23:19:54 30° ENE 23:22:39 10° NNE
Cosmos 1943 Rocket 4.3 23:21:41 11° ENE 23:21:41 11° ENE 23:22:12 10° ENE
Cosmos 1110 Rocket 4.3 23:15:53 18° SSW 23:19:45 66° WNW 23:24:57 10° NNE
Cosmos 1536 4.4 23:25:09 25° NE 23:25:09 25° NE 23:27:21 10° NNE
Terra 1.7 23:23:26 64° SE 23:24:04 76° ENE 23:28:50 10° N
ISS -0.2 23:22:22 10° NW 23:24:24 15° N 23:26:25 10° NNE
Meteor 1-20 Rocket 4.4 23:21:30 28° SSW 23:24:28 69° W 23:29:58 10° N
Cosmos 1833 Rocket 3.5 23:19:28 10° NW 23:24:46 44° WSW 23:26:48 31° SSW
Cosmos 1025 Rocket 3.8 23:25:04 10° N 23:28:53 40° ENE 23:28:53 40° ENE
ATLAS 2AS CENTAUR R/B 4.3 23:22:09 10° NNW 23:29:20 33° NE 23:34:23 17° E
Abrixas 4.5 23:28:29 10° W 23:30:25 28° WNW 23:30:25 28° WNW
DMSP B5D2-2 3.9 23:27:56 10° NNE 23:33:11 81° ESE 23:34:07 61° S
NOSS 3-1 (C) 4.0 23:29:46 10° NW 23:37:23 84° NE 23:40:23 44° SE
Cosmos 1300 Rocket 4.2 23:41:49 45° WSW 23:42:37 51° W 23:46:59 10° N
Cosmos 1821 Rocket 3.9 23:42:00 56° SSE 23:43:12 69° E 23:49:22 10° NNE
Meteor 2-21 4.4 23:42:20 56° SSE 23:43:41 77° E 23:49:54 10° N
USA 234 3.3 23:38:35 10° NE 23:44:57 53° SE 23:45:22 52° SE
Spot 4 3.7 23:45:42 81° S 23:45:56 87° WSW 23:50:49 10° NNW
Okean 1 4.4 23:42:27 10° NNW 23:46:15 38° W 23:46:23 38° W
Cosmos 1486 Rocket 4.2 23:43:45 10° NNW 23:49:01 61° WSW 23:49:39 56° SW
Cosmos 1809 Rocket 4.3 23:47:40 57° S 23:49:04 85° E 23:55:17 10° N
Cosmos 1812 4.4 23:46:55 10° NNW 23:50:14 27° W 23:50:22 27° W
Cosmos 1934 Rocket 3.8 23:49:38 60° SE 23:50:18 65° E 23:56:17 10° NNE
Cosmos 1354 Rocket 3.9 23:45:18 10° NNW 23:50:35 73° ENE 23:50:52 71° E
Cosmos 1602 4.5 23:51:53 51° N 23:51:53 51° N 23:54:54 10° N
Okean 1 Rocket 3.8 23:51:03 45° WSW 23:51:39 48° WNW 23:56:00 10° N
Cosmos 2082 Rocket 4.1 23:48:31 10° NW 23:52:33 20° W 23:54:41 16° SW
